Overview Statistics Trail Chart Weather Telemetry Raw packets
 

This is the latest recevied weather packets stored in our database for station/object K1RFS. If no packets are shown the sender has not sent any weather packets the latest 10 day(s).

<< 42 43 44 45 46 47 48 >>
Time Temp. Humidity Pressure Rain* Wind** Luminosity Snow
1788402903 22.78° C 22% 998.1 hPa 0 mm - 0 W/m² -
1788402598 23.33° C 21% 998.1 hPa 0 mm - 0 W/m² -
1788402297 23.89° C 20% 998 hPa 0 mm - 0 W/m² -
1788401995 25° C 17% 998.3 hPa 0 mm - 0 W/m² -
1788401691 25° C 15% 998 hPa 0 mm - 0 W/m² -
1788401386 25° C 14% 997.8 hPa 0 mm - 0 W/m² -
1788401082 25° C 15% 998 hPa 0 mm - 1 W/m² -
1788400777 25° C 16% 998.1 hPa 0 mm - 1 W/m² -
1788400472 25.56° C 15% 998.1 hPa 0 mm - 2 W/m² -
1788400167 25.56° C 15% 998.3 hPa 0 mm - 4 W/m² -
1788399866 25.56° C 16% 998.1 hPa 0 mm - 6 W/m² -
1788399561 25.56° C 16% 998.1 hPa 0 mm - 9 W/m² -
1788399261 26.11° C 15% 998.2 hPa 0 mm - 12 W/m² -
1788398960 26.11° C 15% 998.3 hPa 0 mm - 14 W/m² -
1788398660 26.11° C 14% 998.3 hPa 0 mm - 18 W/m² -
1788398359 26.11° C 14% 998.1 hPa 0 mm - 26 W/m² -
1788398054 26.11° C 15% 998.4 hPa 0 mm - 33 W/m² -
1788397749 26.67° C 14% 998.3 hPa 0 mm - 31 W/m² -
1788397445 26.67° C 14% 998.4 hPa 0 mm - 30 W/m² -
1788397142 27.22° C 14% 998.5 hPa 0 mm - 33 W/m² -
1788396838 27.78° C 14% 998.5 hPa 0 mm - 53 W/m² -
1788396534 27.78° C 13% 998.8 hPa 0 mm - 76 W/m² -
1788396229 27.78° C 13% 998.5 hPa 0 mm - 97 W/m² -
1788395924 27.78° C 12% 998.6 hPa 0 mm - 122 W/m² -
1788395618 27.22° C 13% 998.6 hPa 0 mm - 104 W/m² -

* Rain latest hour (hover to see other rain measurements)
** Current wind speed in m/s (hover to see current wind gust speed)